HZVE7 OEJN-OEMA

Flight info

Callsign HZVE7
Flight time 0h 32m
Altitude 29000
Route DATAP A424 DEGVU
Aircraft CL60/M-SBDE1E2E3FGHIJ1J4J5J7M3RWXYZ/LB1V1D1

Departure

Time 2026-04-24 13:39
Airport King Abdulaziz International Airport (OEJN)

Arrival

Time 2026-04-24 14:12
Airport Prince Mohammad Bin Abdulaziz Airport (OEMA)
Time Latitude Longitude Altitude Speed Heading
2026-04-24 12:54 21.69243 39.13854 55 ft 0 kts 70°
2026-04-24 13:23 21.69241 39.13848 55 ft 2 kts 69°
2026-04-24 13:23 21.69236 39.13833 55 ft 2 kts 70°
2026-04-24 13:24 21.69231 39.13818 55 ft 2 kts 70°
2026-04-24 13:24 21.69229 39.13802 55 ft 2 kts 107°
2026-04-24 13:24 21.69238 39.13789 55 ft 2 kts 148°
2026-04-24 13:24 21.69244 39.13786 55 ft 0 kts 160°
2026-04-24 13:28 21.69243 39.13787 55 ft 1 kts 158°
2026-04-24 13:28 21.69213 39.13799 55 ft 9 kts 159°
2026-04-24 13:28 21.69122 39.13835 55 ft 11 kts 160°
2026-04-24 13:28 21.69061 39.13833 55 ft 10 kts 237°
2026-04-24 13:29 21.69032 39.13746 55 ft 13 kts 250°
2026-04-24 13:29 21.68994 39.13639 55 ft 16 kts 250°
2026-04-24 13:29 21.68942 39.13534 55 ft 13 kts 205°
2026-04-24 13:29 21.68845 39.13562 55 ft 16 kts 161°
2026-04-24 13:30 21.68718 39.13612 55 ft 22 kts 160°
2026-04-24 13:30 21.68550 39.13678 55 ft 28 kts 160°
2026-04-24 13:30 21.68422 39.13729 55 ft 17 kts 160°
2026-04-24 13:30 21.68304 39.13776 55 ft 18 kts 160°
2026-04-24 13:31 21.68252 39.13854 55 ft 14 kts 65°
2026-04-24 13:31 21.68293 39.13971 55 ft 18 kts 69°
2026-04-24 13:31 21.68343 39.14117 55 ft 22 kts 70°
2026-04-24 13:31 21.68401 39.14284 55 ft 25 kts 70°
2026-04-24 13:32 21.68466 39.14474 55 ft 28 kts 69°
2026-04-24 13:32 21.68536 39.14675 55 ft 27 kts 72°
2026-04-24 13:32 21.68589 39.14830 55 ft 22 kts 70°
2026-04-24 13:32 21.68648 39.15000 55 ft 25 kts 69°
2026-04-24 13:33 21.68703 39.15163 55 ft 12 kts 69°
2026-04-24 13:33 21.68710 39.15249 55 ft 12 kts 130°
2026-04-24 13:33 21.68612 39.15290 55 ft 17 kts 161°
2026-04-24 13:33 21.68470 39.15346 55 ft 24 kts 160°
2026-04-24 13:34 21.68292 39.15416 55 ft 29 kts 159°
2026-04-24 13:34 21.68089 39.15496 55 ft 31 kts 159°
2026-04-24 13:34 21.67877 39.15580 55 ft 25 kts 159°
2026-04-24 13:34 21.67762 39.15626 55 ft 21 kts 160°
2026-04-24 13:35 21.67591 39.15693 55 ft 30 kts 159°
2026-04-24 13:35 21.67388 39.15773 55 ft 28 kts 160°
2026-04-24 13:35 21.67191 39.15852 55 ft 31 kts 160°
2026-04-24 13:35 21.67001 39.15926 55 ft 26 kts 160°
2026-04-24 13:36 21.66823 39.15996 55 ft 28 kts 159°
2026-04-24 13:36 21.66625 39.16074 55 ft 31 kts 160°
2026-04-24 13:36 21.66423 39.16154 55 ft 29 kts 162°
2026-04-24 13:36 21.66260 39.16219 55 ft 21 kts 159°
2026-04-24 13:37 21.66129 39.16270 55 ft 16 kts 160°
2026-04-24 13:37 21.66077 39.16315 55 ft 6 kts 100°
2026-04-24 13:37 21.66077 39.16329 55 ft 0 kts 77°
2026-04-24 13:38 21.66078 39.16330 55 ft 1 kts 77°
2026-04-24 13:38 21.66091 39.16373 55 ft 11 kts 69°
2026-04-24 13:38 21.66120 39.16453 55 ft 9 kts 69°
2026-04-24 13:38 21.66160 39.16475 55 ft 6 kts 337°
2026-04-24 13:39 21.66276 39.16428 55 ft 52 kts 338°
2026-04-24 13:39 21.66965 39.16158 104 ft 148 kts 338°
2026-04-24 13:39 21.68060 39.15743 676 ft 184 kts 338°
2026-04-24 13:39 21.69405 39.15226 1369 ft 228 kts 339°
2026-04-24 13:40 21.70979 39.14624 2192 ft 244 kts 340°
2026-04-24 13:40 21.72606 39.13985 2978 ft 247 kts 339°
2026-04-24 13:40 21.74219 39.13337 3744 ft 252 kts 339°
2026-04-24 13:40 21.75890 39.12667 4546 ft 256 kts 338°
2026-04-24 13:41 21.77587 39.11991 5345 ft 262 kts 339°
2026-04-24 13:41 21.79399 39.11628 5768 ft 275 kts
2026-04-24 13:41 21.81273 39.12244 6667 ft 288 kts 23°
2026-04-24 13:41 21.83139 39.13064 7704 ft 301 kts 22°
2026-04-24 13:42 21.85120 39.13910 8824 ft 310 kts 21°
2026-04-24 13:42 21.87125 39.14767 10052 ft 316 kts 20°
2026-04-24 13:42 21.89168 39.15641 11251 ft 321 kts 20°
2026-04-24 13:42 21.91259 39.16536 12418 ft 326 kts 20°
2026-04-24 13:43 21.93373 39.17440 13506 ft 332 kts 20°
2026-04-24 13:43 21.95525 39.18362 14620 ft 336 kts 20°
2026-04-24 13:43 21.97711 39.19299 15696 ft 342 kts 20°
2026-04-24 13:43 21.99921 39.20246 16751 ft 347 kts 20°
2026-04-24 13:44 22.02207 39.21226 17762 ft 353 kts 20°
2026-04-24 13:44 22.04488 39.22204 18700 ft 359 kts 19°
2026-04-24 13:44 22.06842 39.23213 19415 ft 370 kts 19°
2026-04-24 13:44 22.09274 39.24256 19657 ft 374 kts 19°
2026-04-24 13:45 22.11690 39.25295 19743 ft 370 kts 19°
2026-04-24 13:45 22.14107 39.26334 19786 ft 370 kts 19°
2026-04-24 13:45 22.16494 39.27361 19751 ft 372 kts 19°
2026-04-24 13:45 22.18990 39.28431 20017 ft 392 kts 19°
2026-04-24 13:46 22.21563 39.29538 20878 ft 396 kts 18°
2026-04-24 13:46 22.24087 39.30626 22000 ft 390 kts 18°
2026-04-24 13:46 22.26607 39.31712 22988 ft 389 kts 17°
2026-04-24 13:46 22.29146 39.32803 23778 ft 395 kts 17°
2026-04-24 13:47 22.31727 39.33914 24541 ft 401 kts 17°
2026-04-24 13:47 22.34332 39.35035 25170 ft 409 kts 17°
2026-04-24 13:47 22.36978 39.36175 25891 ft 413 kts 17°
2026-04-24 13:47 22.39697 39.37347 26608 ft 418 kts 17°
2026-04-24 13:48 22.42421 39.38522 27247 ft 424 kts 17°
2026-04-24 13:48 22.45191 39.39717 27885 ft 429 kts 17°
2026-04-24 13:48 22.47988 39.40924 28462 ft 436 kts 17°
2026-04-24 13:48 22.50838 39.42153 28751 ft 446 kts 17°
2026-04-24 13:49 22.56611 39.44652 28806 ft 443 kts 17°
2026-04-24 13:49 22.62365 39.47145 28832 ft 439 kts 17°
2026-04-24 13:50 22.68072 39.49505 28858 ft 437 kts 14°
2026-04-24 13:50 22.73832 39.51733 28860 ft 445 kts 14°
2026-04-24 13:51 22.76812 39.52881 28880 ft 464 kts 15°
2026-04-24 13:51 22.79919 39.54080 28863 ft 483 kts 15°
2026-04-24 13:51 22.83173 39.55338 28854 ft 499 kts 15°
2026-04-24 13:51 22.86514 39.56633 28862 ft 511 kts 15°
2026-04-24 13:52 22.93272 39.59258 28887 ft 513 kts 15°
2026-04-24 13:52 22.99996 39.61853 28894 ft 506 kts 13°
2026-04-24 13:53 23.03404 39.62608 28907 ft 495 kts 360°
2026-04-24 13:53 23.06850 39.62813 28875 ft 486 kts 357°
2026-04-24 13:53 23.10183 39.62988 28889 ft 465 kts 357°
2026-04-24 13:53 23.13397 39.63158 28139 ft 459 kts 356°
2026-04-24 13:54 23.16533 39.63322 27551 ft 444 kts 356°
2026-04-24 13:54 23.19589 39.63484 26957 ft 431 kts 356°
2026-04-24 13:54 23.22568 39.63641 26393 ft 419 kts 356°
2026-04-24 13:54 23.25459 39.63791 25825 ft 409 kts 356°
2026-04-24 13:55 23.28262 39.63937 25303 ft 399 kts 356°
2026-04-24 13:55 23.31021 39.64080 24782 ft 390 kts 356°
2026-04-24 13:55 23.33737 39.64220 24305 ft 388 kts 356°
2026-04-24 13:55 23.36444 39.64358 23756 ft 387 kts 356°
2026-04-24 13:56 23.39136 39.64497 23252 ft 385 kts 357°
2026-04-24 13:56 23.41819 39.64635 22736 ft 383 kts 356°
2026-04-24 13:56 23.44486 39.64773 22236 ft 379 kts 356°
2026-04-24 13:56 23.47096 39.64908 21734 ft 377 kts 357°
2026-04-24 13:57 23.49759 39.65046 21238 ft 374 kts 358°
2026-04-24 13:57 23.52362 39.65181 20759 ft 370 kts 358°
2026-04-24 13:57 23.54924 39.65314 20260 ft 367 kts 358°
2026-04-24 13:57 23.57477 39.65447 19776 ft 365 kts 358°
2026-04-24 13:58 23.60030 39.65578 19261 ft 363 kts 359°
2026-04-24 13:58 23.62550 39.65707 18825 ft 359 kts 358°
2026-04-24 13:58 23.65049 39.65836 18327 ft 358 kts 359°
2026-04-24 13:58 23.67546 39.65964 17848 ft 356 kts 359°
2026-04-24 13:59 23.70031 39.66091 17363 ft 355 kts 359°
2026-04-24 13:59 23.72467 39.66430 16933 ft 354 kts 10°
2026-04-24 13:59 23.74898 39.67068 16467 ft 355 kts 11°
2026-04-24 13:59 23.77310 39.67703 15985 ft 353 kts 12°
2026-04-24 14:00 23.79686 39.68327 15516 ft 351 kts 11°
2026-04-24 14:00 23.82051 39.68948 15064 ft 349 kts 11°
2026-04-24 14:00 23.84447 39.69577 14616 ft 345 kts 11°
2026-04-24 14:00 23.86753 39.70184 14286 ft 340 kts 11°
2026-04-24 14:01 23.89058 39.70788 13771 ft 341 kts 11°
2026-04-24 14:01 23.91384 39.71399 13340 ft 338 kts 11°
2026-04-24 14:01 23.93665 39.71997 12872 ft 337 kts 11°
2026-04-24 14:01 23.95950 39.72597 12424 ft 334 kts 11°
2026-04-24 14:02 23.98188 39.73184 11985 ft 332 kts 11°
2026-04-24 14:02 24.00452 39.73779 11544 ft 330 kts 11°
2026-04-24 14:02 24.02698 39.74368 11098 ft 327 kts 11°
2026-04-24 14:02 24.04908 39.74948 10664 ft 325 kts 11°
2026-04-24 14:03 24.07094 39.75523 10237 ft 322 kts 11°
2026-04-24 14:03 24.09290 39.76100 9818 ft 317 kts 11°
2026-04-24 14:03 24.11412 39.76658 9394 ft 313 kts 11°
2026-04-24 14:03 24.13513 39.77211 8965 ft 306 kts 11°
2026-04-24 14:04 24.15563 39.77750 8573 ft 295 kts 11°
2026-04-24 14:04 24.17533 39.78268 8201 ft 285 kts 10°
2026-04-24 14:04 24.19463 39.78410 7825 ft 271 kts 348°
2026-04-24 14:04 24.21289 39.78040 7476 ft 261 kts 345°
2026-04-24 14:05 24.23050 39.77666 7120 ft 255 kts 345°
2026-04-24 14:05 24.24807 39.77295 6641 ft 254 kts 345°
2026-04-24 14:05 24.26536 39.76928 6204 ft 251 kts 345°
2026-04-24 14:05 24.28245 39.76566 5849 ft 244 kts 345°
2026-04-24 14:06 24.29896 39.76217 5500 ft 239 kts 345°
2026-04-24 14:06 24.31506 39.75876 5153 ft 233 kts 345°
2026-04-24 14:06 24.33056 39.75549 4766 ft 217 kts 345°
2026-04-24 14:06 24.34505 39.75241 4574 ft 212 kts 344°
2026-04-24 14:07 24.35947 39.74934 4553 ft 208 kts 345°
2026-04-24 14:07 24.37297 39.74653 4559 ft 186 kts 344°
2026-04-24 14:07 24.38558 39.74383 4546 ft 182 kts 344°
2026-04-24 14:07 24.39769 39.74128 4548 ft 171 kts 344°
2026-04-24 14:08 24.40939 39.73879 4431 ft 170 kts 343°
2026-04-24 14:08 24.42060 39.73642 4223 ft 155 kts 344°
2026-04-24 14:08 24.43109 39.73421 4049 ft 150 kts 343°
2026-04-24 14:08 24.44124 39.73204 3848 ft 145 kts 343°
2026-04-24 14:09 24.45110 39.72993 3680 ft 143 kts 344°
2026-04-24 14:09 24.46078 39.72787 3505 ft 140 kts 344°
2026-04-24 14:09 24.47046 39.72583 3316 ft 137 kts 343°
2026-04-24 14:09 24.47988 39.72383 3152 ft 136 kts 343°
2026-04-24 14:10 24.48603 39.72252 3044 ft 135 kts 343°
2026-04-24 14:10 24.49845 39.71988 2817 ft 135 kts 343°
2026-04-24 14:10 24.50776 39.71790 2645 ft 136 kts 343°
2026-04-24 14:10 24.51716 39.71592 2455 ft 136 kts 344°
2026-04-24 14:11 24.52652 39.71399 2302 ft 136 kts 344°
2026-04-24 14:11 24.53575 39.71199 2153 ft 136 kts 343°
2026-04-24 14:11 24.55189 39.70852 2108 ft 86 kts 349°
2026-04-24 14:12 24.55694 39.70744 2128 ft 65 kts 348°
2026-04-24 14:12 24.56035 39.70665 2132 ft 36 kts 342°
2026-04-24 14:12 24.56170 39.70592 2134 ft 15 kts 319°
2026-04-24 14:12 24.56249 39.70519 2134 ft 1 kts 320°
2026-04-24 14:13 24.56251 39.70517 2134 ft 1 kts 319°
2026-04-24 14:13 24.56278 39.70493 2135 ft 5 kts 319°
2026-04-24 14:13 24.56285 39.70486 2135 ft 1 kts 319°
2026-04-24 14:13 24.56286 39.70485 2135 ft 0 kts 319°
2026-04-24 14:14 24.56332 39.70436 2135 ft 13 kts 301°
2026-04-24 14:14 24.56326 39.70287 2135 ft 6 kts 182°
2026-04-24 14:15 24.56284 39.70284 2135 ft 12 kts 184°
2026-04-24 14:15 24.56121 39.70272 2132 ft 20 kts 184°
2026-04-24 14:15 24.55988 39.70263 2129 ft 19 kts 184°
2026-04-24 14:15 24.55830 39.70251 2125 ft 25 kts 184°
2026-04-24 14:16 24.55660 39.70238 2120 ft 24 kts 185°
2026-04-24 14:16 24.55494 39.70228 2118 ft 21 kts 184°
2026-04-24 14:16 24.55334 39.70217 2113 ft 24 kts 184°
2026-04-24 14:17 24.55029 39.70193 2106 ft 21 kts 183°
2026-04-24 14:17 24.54868 39.70181 2102 ft 23 kts 184°
2026-04-24 14:17 24.54742 39.70132 2102 ft 7 kts 233°
2026-04-24 14:18 24.54717 39.70082 2104 ft 7 kts 243°
2026-04-24 14:18 24.54689 39.70026 2105 ft 8 kts 241°
2026-04-24 14:18 24.54662 39.69971 2102 ft 4 kts 241°
2026-04-24 14:18 24.54657 39.69962 2101 ft 0 kts 240°